Location: Tierz
(42.1336°N, 0.3549°W)
Time: 23:09:08
(UTC+00:00)

USA 305 - Pass Details

Date: 29 October 2020
Orbit: 569 x 577 km, 54.0° (Epoch: 22 November)

Event Time Altitude Azimuth Distance (km) Brightness Sun altitude
Rises 17:49:07 0° 311° (NW) 2,787 7.0 -9.9°
Reaches altitude 10° 17:51:33 10° 321° (NW) 1,885 6.0 -10.4°
Maximum altitude 17:55:27 33° 26° (NNE) 980 3.8 -11.1°
Enters shadow 17:58:08 17° 82° (E) 1,480 4.3 -11.6°
